User: anonymous   Login
Location: Gallinara
(44.0333°N, 8.2333°E)
Time: 11:19:42
(UTC+00:00)
Language:

Cosmos 2322 Rocket - Orbit

View from above orbital plane
View from above orbital plane
View from above satellite
View from above satellite

Ground track
Ground track

The orbit data is extracted from the following two-line orbital elements,

1 23705U 95058B   20338.17263241  .00000285  00000-0  17136-3 0  9992
2 23705  71.0228 254.9538 0012429 179.9621 180.1505 14.15140220296140
Epoch (UTC): 03 December 2020 04:08:35
Eccentricity: 0.0012429
inclination: 71.0228°
perigee height: 833 km
apogee height: 851 km
right ascension of ascending node: 254.9538°
argument of perigee: 179.9621°
revolutions per day: 14.15140220
mean anomaly at epoch: 180.1505°
orbit number at epoch: 29614

The dashed part of the orbit path shows where the satellite is in the earth's shadow,  

DLR